KC1IUC-15 Weather Reports


Display with metric or nautical units.
time (UTC)temp
F
wind
direction
speed
MPH
gust
MPH
rain 1hr
in
rain 24hr
in
rain mn
in
humidity
%
barometer
mb
20260506185503 59 312 3.0 11.0 0.06 0.13 0.13 94 1007.2
20260506185003 59 272 3.0 11.0 0.06 0.13 0.13 94 1007.2
20260506184503 59 347 3.0 11.0 0.07 0.13 0.13 93 1007.2
20260506184003 59 335 4.0 10.0 0.07 0.12 0.12 93 1007.2
20260506183503 59 306 4.0 16.0 0.07 0.12 0.12 93 1007.2
20260506183004 59 223 5.0 16.0 0.08 0.12 0.12 93 1007.5
20260506182503 59 223 5.0 15.0 0.08 0.11 0.11 93 1007.9
20260506182003 59 245 6.0 18.0 0.09 0.11 0.11 92 1007.5
20260506181503 59 264 5.0 18.0 0.08 0.10 0.10 92 1007.5
20260506181003 59 312 3.0 9.0 0.07 0.09 0.09 92 1007.5
20260506180503 59 310 3.0 9.0 0.06 0.08 0.08 92 1007.2
20260506180004 59 336 4.0 9.0 0.07 0.08 0.08 91 1007.5
20260506175503 60 322 4.0 10.0 0.06 0.07 0.07 91 1007.2
20260506175003 60 301 5.0 12.0 0.06 0.07 0.07 90 1007.5
20260506174503 60 303 5.0 12.0 0.05 0.06 0.06 89 1007.5
20260506174003 60 250 5.0 18.0 0.04 0.05 0.05 88 1007.5
20260506173503 60 128 5.0 18.0 0.04 0.05 0.05 87 1007.9
20260506173003 61 90 3.0 14.0 0.03 0.04 0.04 86 1007.5
20260506172503 61 270 3.0 13.0 0.02 0.03 0.03 85 1007.9
20260506172003 62 346 3.0 12.0 0.01 0.02 0.02 82 1008.2
20260506171503 62 1 2.0 9.0 0.01 0.02 0.02 82 1008.2
20260506171003 62 347 2.0 9.0 0.01 0.02 0.02 80 1008.2
20260506170503 63 12 2.0 6.0 0.02 0.02 0.02 80 1008.6
20260506170004 63 347 2.0 7.0 0.01 0.01 0.01 79 1008.6
20260506165503 63 326 2.0 7.0 0.01 0.01 0.01 78 1008.6
20260506165003 64 3 3.0 17.0 0.01 0.01 0.01 79 1008.6
20260506164503 64 351 4.0 17.0 0.01 0.01 0.01 77 1008.6
20260506164003 64 239 4.0 14.0 0.01 0.01 0.01 75 1008.6
20260506163503 64 253 5.0 14.0 0.01 0.01 0.01 75 1008.6
20260506163003 64 278 4.0 14.0 0.01 0.01 0.01 75 1008.2
20260506162503 65 286 4.0 14.0 0.01 0.01 0.01 74 1008.2
20260506162003 64 303 5.0 13.0 0.01 0.01 0.01 75 1008.6
20260506161503 65 282 5.0 13.0 0.01 0.01 0.01 75 1008.2
20260506161003 65 284 5.0 13.0 0.01 0.01 0.01 74 1008.6
20260506160503 65 274 4.0 11.0 0.00 0.00 0.00 72 1008.2
20260506160003 65 300 3.0 10.0 0.00 0.00 0.00 71 1008.6
20260506155503 65 256 4.0 14.0 0.00 0.00 0.00 72 1008.6
20260506155003 65 230 5.0 14.0 0.00 0.00 0.00 71 1008.9
20260506154503 65 315 5.0 16.0 0.00 0.00 0.00 71 1008.6
20260506154003 66 331 4.0 16.0 0.00 0.00 0.00 71 1008.9
20260506153503 66 311 3.0 10.0 0.00 0.00 0.00 69 1009.3
20260506153003 66 263 4.0 13.0 0.00 0.00 0.00 70 1008.9
20260506152503 66 283 4.0 13.0 0.00 0.00 0.00 70 1008.6
20260506152003 66 336 4.0 12.0 0.00 0.00 0.00 70 1008.6
20260506151503 66 266 5.0 16.0 0.00 0.00 0.00 69 1008.6
20260506151003 66 256 5.0 16.0 0.00 0.00 0.00 69 1008.9
20260506150504 67 273 5.0 15.0 0.00 0.00 0.00 69 1008.6
20260506150003 67 270 4.0 14.0 0.00 0.00 0.00 68 1008.6
20260506145503 67 255 3.0 9.0 0.00 0.00 0.00 68 1008.9
20260506145003 67 241 4.0 10.0 0.00 0.00 0.00 68 1008.6
20260506144503 67 270 4.0 10.0 0.00 0.00 0.00 68 1008.9
20260506144003 67 283 4.0 10.0 0.00 0.00 0.00 69 1008.6
20260506143503 66 254 5.0 22.0 0.00 0.00 0.00 69 1008.6
20260506143003 67 244 5.0 22.0 0.00 0.00 0.00 69 1008.9
20260506142503 67 262 5.0 16.0 0.00 0.00 0.00 68 1008.9
20260506142003 67 257 4.0 16.0 0.00 0.00 0.00 68 1008.9
20260506141503 67 272 5.0 15.0 0.00 0.00 0.00 69 1008.9
20260506141003 67 303 5.0 15.0 0.00 0.00 0.00 68 1008.9
20260506140503 67 358 4.0 13.0 0.00 0.00 0.00 69 1008.9
20260506140003 66 360 4.0 13.0 0.00 0.00 0.00 69 1008.9
20260506135503 66 305 4.0 14.0 0.00 0.00 0.00 70 1008.9
20260506135003 67 267 4.0 15.0 0.00 0.00 0.00 70 1009.3
20260506134503 65 327 4.0 15.0 0.00 0.00 0.00 72 1008.9
20260506134003 65 1 4.0 12.0 0.00 0.00 0.00 72 1008.9
20260506133503 66 348 4.0 11.0 0.00 0.00 0.00 71 1008.9
20260506133003 65 285 4.0 11.0 0.00 0.00 0.00 72 1008.9
20260506132503 66 260 3.0 11.0 0.00 0.00 0.00 73 1008.9
20260506132003 65 267 3.0 12.0 0.00 0.00 0.00 73 1008.9
20260506131503 64 194 3.0 15.0 0.00 0.00 0.00 75 1009.3
20260506131003 64 230 3.0 15.0 0.00 0.00 0.00 75 1008.9
20260506130503 63 297 4.0 10.0 0.00 0.00 0.00 77 1009.3
20260506130004 63 329 5.0 11.0 0.00 0.00 0.00 77 1009.3
20260506125503 63 306 4.0 11.0 0.00 0.00 0.00 76 1008.9
20260506125003 64 266 3.0 10.0 0.00 0.00 0.00 77 1009.3
20260506124503 63 286 3.0 11.0 0.00 0.00 0.00 78 1009.3
20260506124003 63 288 4.0 15.0 0.00 0.00 0.00 78 1009.6
20260506123503 62 252 5.0 17.0 0.00 0.00 0.00 78 1009.6
20260506123003 62 251 4.0 17.0 0.00 0.00 0.00 79 1009.6
20260506122503 62 286 3.0 15.0 0.00 0.00 0.00 79 1009.6
20260506122003 62 279 3.0 15.0 0.00 0.00 0.00 79 1009.9
20260506121503 62 276 2.0 7.0 0.00 0.00 0.00 80 1009.6
20260506121003 61 244 2.0 8.0 0.00 0.00 0.00 80 1009.6
20260506120503 61 229 3.0 8.0 0.00 0.00 0.00 81 1009.6
20260506120004 61 254 3.0 8.0 0.00 0.00 0.00 81 1009.9
20260506115503 60 265 3.0 12.0 0.00 0.00 0.00 83 1009.6
20260506115003 60 270 4.0 12.0 0.00 0.00 0.00 84 1009.6
20260506114503 60 268 3.0 11.0 0.00 0.00 0.00 84 1009.6
20260506114003 59 234 4.0 13.0 0.00 0.00 0.00 85 1009.6
20260506113503 59 244 4.0 13.0 0.00 0.00 0.00 85 1009.6
20260506113003 58 301 4.0 11.0 0.00 0.00 0.00 86 1009.6
20260506112503 58 2 4.0 11.0 0.00 0.00 0.00 87 1009.6
20260506112003 58 9 3.0 9.0 0.00 0.00 0.00 87 1009.6
20260506111503 58 308 3.0 13.0 0.00 0.00 0.00 87 1009.6
20260506111003 58 249 3.0 13.0 0.00 0.00 0.00 88 1009.9
20260506110503 57 303 3.0 8.0 0.00 0.00 0.00 88 1009.9
20260506110003 57 322 3.0 8.0 0.00 0.00 0.00 88 1009.9
20260506105503 57 273 3.0 8.0 0.00 0.00 0.00 88 1009.9
20260506105003 57 289 3.0 8.0 0.00 0.00 0.00 89 1009.9
20260506104503 57 278 2.0 7.0 0.00 0.00 0.00 89 1009.9
20260506104003 56 338 2.0 7.0 0.00 0.00 0.00 89 1009.6
20260506103503 56 11 2.0 7.0 0.00 0.00 0.00 90 1009.9
20260506103003 56 12 1.0 6.0 0.00 0.00 0.00 90 1009.9
20260506102503 56 249 2.0 6.0 0.00 0.00 0.00 90 1009.9
20260506102003 56 321 2.0 6.0 0.00 0.00 0.00 91 1009.6
20260506101503 56 19 2.0 6.0 0.00 0.00 0.00 91 1009.6
20260506101003 56 3 2.0 8.0 0.00 0.00 0.00 91 1009.6
20260506100503 56 338 2.0 8.0 0.00 0.00 0.00 90 1009.6
20260506100004 56 327 2.0 7.0 0.00 0.00 0.00 90 1009.6
20260506095503 56 326 2.0 7.0 0.00 0.00 0.00 90 1009.6
20260506095003 56 226 2.0 8.0 0.00 0.00 0.00 90 1009.6
20260506094503 56 33 2.0 9.0 0.00 0.00 0.00 89 1009.6
20260506094003 56 31 2.0 9.0 0.00 0.00 0.00 89 1009.6
20260506093503 56 184 2.0 8.0 0.00 0.00 0.00 89 1009.6
20260506093003 56 22 2.0 8.0 0.00 0.00 0.00 89 1009.6
20260506092503 56 356 2.0 6.0 0.00 0.00 0.00 88 1009.6
20260506092003 56 7 1.0 6.0 0.00 0.00 0.00 88 1009.6
20260506091503 57 26 1.0 8.0 0.00 0.00 0.00 87 1009.6
20260506091003 57 11 2.0 8.0 0.00 0.00 0.00 87 1009.6
20260506090503 57 258 2.0 12.0 0.00 0.00 0.00 87 1009.6
20260506090003 57 282 2.0 12.0 0.00 0.00 0.00 87 1009.6
20260506085503 57 282 2.0 9.0 0.00 0.00 0.00 87 1009.6
20260506085003 57 353 2.0 9.0 0.00 0.00 0.00 86 1009.6
20260506084503 57 326 3.0 9.0 0.00 0.00 0.00 86 1009.6
20260506084003 57 254 3.0 8.0 0.00 0.00 0.00 86 1009.6
20260506083503 57 301 2.0 7.0 0.00 0.00 0.00 86 1009.6
20260506083003 57 261 3.0 12.0 0.00 0.00 0.00 85 1009.9
20260506082503 58 250 3.0 19.0 0.00 0.00 0.00 85 1009.9
20260506082003 58 297 4.0 19.0 0.00 0.00 0.00 85 1009.6
20260506081503 58 250 4.0 13.0 0.00 0.00 0.00 85 1009.6
20260506081003 57 212 3.0 12.0 0.00 0.00 0.00 85 1009.6
20260506080503 58 215 3.0 11.0 0.00 0.00 0.00 85 1009.6
20260506073503 58 260 3.0 12.0 0.00 0.00 0.00 83 1009.6
20260506073003 58 246 3.0 8.0 0.00 0.00 0.00 83 1009.6
20260506072503 58 204 3.0 9.0 0.00 0.00 0.00 83 1009.6
20260506072003 58 225 4.0 10.0 0.00 0.00 0.00 82 1009.6
20260506071503 58 230 4.0 15.0 0.00 0.00 0.00 82 1009.6
20260506071003 58 220 4.0 15.0 0.00 0.00 0.00 82 1009.6
20260506070503 58 215 4.0 14.0 0.00 0.00 0.00 82 1009.6
20260506062503 59 258 3.0 9.0 0.00 0.00 0.00 81 1009.3
20260506062003 59 237 3.0 10.0 0.00 0.00 0.00 80 1009.6
20260506061503 59 278 3.0 10.0 0.00 0.00 0.00 80 1009.3
20260506061003 59 256 3.0 8.0 0.00 0.00 0.00 80 1009.6
20260506060503 59 234 3.0 12.0 0.00 0.00 0.00 79 1009.3
20260506051003 61 250 3.0 8.0 0.00 0.00 0.00 75 1009.6
20260506050503 61 234 3.0 9.0 0.00 0.00 0.00 75 1009.6
20260506045003 62 242 3.0 11.0 0.00 0.00 0.00 73 1009.6
20260506044503 62 242 3.0 11.0 0.00 0.00 0.00 73 1009.9
20260506044003 62 285 3.0 8.0 0.00 0.00 0.00 72 1009.9
20260506043503 62 287 3.0 10.0 0.00 0.00 0.00 72 1009.9
20260506043003 62 224 3.0 10.0 0.00 0.00 0.00 71 1009.9
20260506042503 62 230 2.0 9.0 0.00 0.00 0.00 71 1009.9
20260506042003 62 235 3.0 9.0 0.00 0.00 0.00 70 1009.9
20260506041503 63 242 4.0 9.0 0.00 0.00 0.00 69 1009.6
20260506041003 63 278 4.0 9.0 0.00 0.00 0.00 69 1009.6
20260506040503 63 239 3.0 9.0 0.00 0.00 0.00 69 1009.9
20260506040004 63 259 3.0 11.0 0.00 0.00 0.00 68 1009.9
20260506035503 63 298 3.0 11.0 0.00 0.00 0.00 68 1009.9
20260506035004 63 238 3.0 15.0 0.00 0.00 0.00 68 1009.6
20260506034503 63 235 3.0 15.0 0.00 0.00 0.00 68 1009.9
20260506034003 63 270 3.0 8.0 0.00 0.00 0.00 68 1009.9
20260506033503 63 242 3.0 11.0 0.00 0.00 0.00 68 1009.9
20260506033004 63 276 3.0 11.0 0.00 0.00 0.00 67 1009.6
20260506032503 63 311 3.0 8.0 0.00 0.00 0.00 67 1009.6
20260506032003 63 305 3.0 9.0 0.00 0.00 0.00 67 1009.6
20260506031503 63 249 4.0 14.0 0.00 0.00 0.00 67 1009.9
20260506031003 63 240 4.0 14.0 0.00 0.00 0.00 67 1009.9
20260506030503 63 250 3.0 14.0 0.00 0.00 0.00 67 1009.6
20260506030003 63 223 3.0 14.0 0.00 0.00 0.00 66 1009.6
20260506025503 63 234 2.0 18.0 0.00 0.00 0.00 66 1009.6
20260506025003 63 241 3.0 18.0 0.00 0.00 0.00 66 1009.6
20260506024503 63 230 4.0 15.0 0.00 0.00 0.00 66 1009.6
20260506024003 63 246 4.0 11.0 0.00 0.00 0.00 66 1009.6
20260506023503 63 259 3.0 11.0 0.00 0.00 0.00 66 1009.6
20260506023003 63 241 4.0 15.0 0.00 0.00 0.00 65 1009.3
20260506022503 63 229 4.0 15.0 0.00 0.00 0.00 65 1009.6
20260506022003 63 237 4.0 14.0 0.00 0.00 0.00 65 1009.6
20260506021503 63 235 4.0 14.0 0.00 0.00 0.00 65 1009.6
20260506021003 63 229 3.0 12.0 0.00 0.00 0.00 65 1009.6
20260506020503 63 295 3.0 7.0 0.00 0.00 0.00 65 1009.3
20260506020003 63 285 3.0 8.0 0.00 0.00 0.00 65 1009.3
20260506015503 64 274 3.0 9.0 0.00 0.00 0.00 64 1009.6
20260506015003 64 246 3.0 14.0 0.00 0.00 0.00 64 1009.3
20260506014503 64 247 4.0 14.0 0.00 0.00 0.00 64 1009.3
20260506014003 64 304 3.0 13.0 0.00 0.00 0.00 64 1008.9
20260506013503 64 339 3.0 12.0 0.00 0.00 0.00 63 1009.3
20260506013003 64 337 3.0 12.0 0.00 0.00 0.00 63 1009.3
20260506012503 64 328 3.0 11.0 0.00 0.00 0.00 63 1009.3
20260506012003 64 244 4.0 15.0 0.00 0.00 0.00 62 1008.9
20260506011503 64 254 4.0 15.0 0.00 0.00 0.00 62 1008.9
20260506011003 64 333 4.0 9.0 0.00 0.00 0.00 62 1008.6
20260506010503 64 334 4.0 9.0 0.00 0.00 0.00 61 1008.9
20260506010003 64 289 3.0 8.0 0.00 0.00 0.00 61 1008.6
20260506005503 65 238 3.0 10.0 0.00 0.00 0.00 60 1008.6
20260506005003 65 239 3.0 10.0 0.00 0.00 0.00 60 1008.6
20260506004504 65 281 4.0 10.0 0.00 0.00 0.00 59 1008.6
20260506004003 65 261 3.0 12.0 0.00 0.00 0.00 59 1008.2
20260506003503 66 262 3.0 13.0 0.00 0.00 0.00 59 1007.9
20260506003003 66 320 3.0 13.0 0.00 0.00 0.00 58 1007.9
20260506002503 66 297 4.0 14.0 0.00 0.00 0.00 58 1008.2
20260506002003 66 261 4.0 14.0 0.00 0.00 0.00 58 1007.9
20260506001503 66 276 3.0 10.0 0.00 0.00 0.00 58 1007.9
20260506001003 66 300 3.0 10.0 0.00 0.00 0.00 59 1007.9
20260506000503 66 265 3.0 9.0 0.00 0.00 0.00 58 1007.5
20260506000003 66 238 4.0 10.0 0.00 0.00 0.00 58 1007.9
20260505235503 67 276 4.0 12.0 0.00 0.00 0.00 58 1007.5
20260505235003 67 256 4.0 12.0 0.00 0.00 0.00 58 1007.5
20260505234503 67 266 3.0 11.0 0.00 0.00 0.00 57 1007.5
20260505234003 68 305 3.0 10.0 0.00 0.00 0.00 57 1007.5
20260505233503 68 242 4.0 12.0 0.00 0.00 0.00 56 1007.5
20260505233003 68 251 4.0 12.0 0.00 0.00 0.00 56 1007.5
20260505232503 68 321 5.0 15.0 0.00 0.00 0.00 56 1007.2
20260505232003 68 277 5.0 16.0 0.00 0.00 0.00 55 1007.5
20260505231503 69 268 4.0 16.0 0.00 0.00 0.00 55 1007.2
20260505231003 69 288 3.0 11.0 0.00 0.00 0.00 55 1007.2
20260505230503 69 291 4.0 22.0 0.00 0.00 0.00 55 1007.2
20260505230003 69 259 5.0 22.0 0.00 0.00 0.00 54 1007.2
20260505225504 69 242 5.0 13.0 0.00 0.00 0.00 54 1007.2
20260505225003 70 248 5.0 17.0 0.00 0.00 0.00 54 1006.9
20260505224503 70 285 5.0 17.0 0.00 0.00 0.00 53 1006.5
20260505224003 70 262 6.0 22.0 0.00 0.00 0.00 54 1006.5
20260505223503 70 263 5.0 22.0 0.00 0.00 0.00 53 1006.5
20260505223003 70 304 4.0 21.0 0.00 0.00 0.00 54 1006.9
20260505222503 71 323 4.0 21.0 0.00 0.00 0.00 53 1007.2
20260505222003 71 291 4.0 18.0 0.00 0.00 0.00 52 1007.2
20260505221503 72 271 4.0 14.0 0.00 0.00 0.00 52 1007.2
20260505221003 71 328 3.0 9.0 0.00 0.00 0.00 53 1006.9
20260505220503 71 3 3.0 7.0 0.00 0.00 0.00 54 1006.9
20260505220003 71 334 4.0 12.0 0.00 0.00 0.00 53 1007.2
20260505215503 72 328 5.0 12.0 0.00 0.00 0.00 53 1007.2
20260505215003 72 319 4.0 14.0 0.00 0.00 0.00 52 1006.9
20260505214503 72 279 4.0 14.0 0.00 0.00 0.00 52 1006.9
20260505214003 72 263 4.0 20.0 0.00 0.00 0.00 51 1006.9
20260505213503 72 260 5.0 20.0 0.00 0.00 0.00 51 1006.5
20260505213003 73 296 5.0 13.0 0.00 0.00 0.00 50 1006.9
20260505212503 72 316 5.0 14.0 0.00 0.00 0.00 51 1006.5
20260505212003 73 316 5.0 14.0 0.00 0.00 0.00 50 1006.5
20260505211503 73 297 4.0 9.0 0.00 0.00 0.00 50 1006.5
20260505211003 73 279 4.0 10.0 0.00 0.00 0.00 50 1006.5
20260505210503 73 291 4.0 13.0 0.00 0.00 0.00 50 1006.5
20260505210003 73 313 4.0 14.0 0.00 0.00 0.00 51 1007.2
20260505205503 74 314 5.0 14.0 0.00 0.00 0.00 50 1006.9
20260505205003 74 284 5.0 14.0 0.00 0.00 0.00 49 1006.9
20260505204503 74 317 5.0 14.0 0.00 0.00 0.00 48 1006.5
20260505204003 74 333 4.0 14.0 0.00 0.00 0.00 50 1006.9
20260505203503 75 307 5.0 14.0 0.00 0.00 0.00 49 1006.5
20260505203003 75 297 6.0 14.0 0.00 0.00 0.00 47 1007.2
20260505202503 76 323 4.0 14.0 0.00 0.00 0.00 46 1006.5
20260505202003 76 353 4.0 12.0 0.00 0.00 0.00 49 1006.9
20260505201503 76 337 4.0 12.0 0.00 0.00 0.00 48 1006.5
20260505201003 76 338 5.0 16.0 0.00 0.00 0.00 47 1006.9
20260505200503 76 290 6.0 19.0 0.00 0.00 0.00 47 1006.9
20260505200003 76 297 6.0 25.0 0.00 0.00 0.00 46 1006.9
20260505195503 76 308 6.0 25.0 0.00 0.00 0.00 46 1006.9
20260505195003 77 272 6.0 18.0 0.00 0.00 0.00 45 1007.2
20260505194503 77 283 5.0 21.0 0.00 0.00 0.00 46 1007.2
20260505194003 77 271 6.0 23.0 0.00 0.00 0.00 46 1007.2
20260505193503 77 262 6.0 23.0 0.00 0.00 0.00 45 1007.2
20260505193003 77 280 5.0 18.0 0.00 0.00 0.00 46 1007.2
20260505192503 77 292 6.0 19.0 0.00 0.00 0.00 46 1007.2
20260505192003 77 317 6.0 19.0 0.00 0.00 0.00 46 1007.2
20260505191503 77 309 6.0 13.0 0.00 0.00 0.00 46 1007.2
20260505191003 77 300 6.0 16.0 0.00 0.00 0.00 46 1007.2
20260505190503 78 274 5.0 17.0 0.00 0.00 0.00 45 1007.5
20260505190004 77 308 6.0 17.0 0.00 0.00 0.00 46 1007.5